OPTUS A2 R/B(PAM-D), 16294

Orbit data source: Space-Track

OPTUS A2 R/B(PAM-D), 16294 is space debris in HEO originally from a launch on Wed, 27 Nov 1985 UTC launched from the Air Force Eastern Test Range (AFETR). Debris objects in space refer to the collection of defunct objects orbiting the Earth. Examples of debris include non-operational satellites, rocket bodies, and fragments generated from explosions, collisions, or faulty payload assembly.

Loading next visibility...
Identifier
16294, 1985-109G
Orbit
HEO
Last TLE update
5 days ago
Origin
Manufacturer
Thiokol/TE
Mission
Spacecraft
Bus & Motor
STAR 48, Unknown motor
Mass
132 kg wet, 132 kg dry
Launch date (UTC)
1985-11-27 (40 years ago)
Launch vehicle
Unknown
Launch site
Air Force Eastern Test Range (AFETR)
Object type
Payload
Rocket body
Debris
Shape & HBR
Sphere + Cone, 2.3 m
Radar Cross Section
2.822 m², Large (>1 m²)

Expand to show TLE details & history

TLE from 5 days ago
0 OPTUS A2 R/B(PAM-D)
1 16294U 85109G   25179.40103031  .00000660  00000-0  10203-2 0  9991
2 16294  26.3131 294.5478 7155671   0.0925 359.8886  2.38678917293773
Epoch: 2025-06-28T09:37Z
TLE epoch observation values (Epoch: 2025-06-28T09:37:29.018Z)
Latitude
0.00009°
Longitude
-126.55935°
Altitude
330.739 km
Speed
10.098 km/s
True Right ascension
19h 38m 12s
True Declination
0° 00' 00"
Sunlit
Object was in full shadow at epoch
Visualization orbit readout
Latitude
6.73894°
Longitude
37.66245°
Altitude
29,427.252 km
Speed
2.326 km/s
Apparent Right ascension
07h 06m 45s
Apparent Declination
0° 12' 15"
Sunlit
Object is in daylight
Visualization observer readout
Local Sidereal Time
01:03:53
Azimuth
89.381° E
Elevation
-0.421°
Doppler factor
1
Orbital elements
Apogee altitude
34,204.275 km
Perigee altitude
350.235 km
Semi-major axis
23,655.392 km
Eccentricity
0.71557
Inclination
26.3131°
RAAN
294.5478°
Arg. of periapsis
0.0925°
True anomaly
Unknown
Mean anomaly
359.8886°
Eccentric anomaly
Unknown
Mean motion
0.59655 °/min
Orbital period
603.47 mins
BSTAR
0.0010203
Loading maneuver chart data...
Loading SW <> Apogee altitude chart data...
Loading historical data...
Loading historical data...
Loading historical data...
Loading historical data...
Loading historical data...
Loading historical data...
Loading historical data...

OPTUS A2 R/B(PAM-D) Visibility forecast

Observer location: undefined°, undefined°

Span
Click to sort rows by Start time (UTC) header in descending order
Start Az.
Max El. time (UTC)
Max El. Az.
Max El.
End time (UTC)
End Az.
113 mins2025-07-03 21:33:05.014Z271.865° WNW2025-07-03 22:16:05.014Z263.938° W14.045°2025-07-03 23:26:05.014Z260.967° W
|